Погода в Ботакаре

Казахстан     50°03′48″N   73°42′36″E
темп.,
°C
ветер,
м/с
пор.,
м/с
влажн.,
%
обл.,
%
осадки,
мм/ч
давл.,
гПа
погр.,
м
25 февраля, чт
чт2500:00−23юз91791100 0.1 1020954
03:00−23юз91991100 0.1 10211227
06:00−22юз112088100 0.1 10211494
09:00−23юз121987100 0.1 10221268
12:00−23зюз121787100 0.1 10231220
15:00−23зюз121788100 0.1 10261273
18:00−24зюз101590100 0.2 10301110
21:00−25зюз91591100 0.1 1033728
26 февраля, пт
пт2600:00−26зюз81494100 0.1 1035543
03:00−28зюз71395100 0.0 1038379
06:00−30юз61197100 0.1 1041275
09:00−30юз5109699 0.0 1041252
12:00−26юз6109288 0.0 1041394
15:00−23юз689088 0.0 1040486
18:00−26юз449491 0.0 104070
21:00−29юз34940 0.0 104233
27 февраля, сб
сб2700:00−30ююз34940 0.0 104223
03:00−30ююз34940 0.0 104124
06:00−31ююз339212 0.0 104023
09:00−29ю338988 0.0 103930
12:00−21ююз468593 0.0 1037271
15:00−17ююз478475 0.0 1035379
18:00−19ю449054 0.0 103466
21:00−19ю598895 0.0 1034183
28 февраля, вс
вс2800:00−18ю6128290 0.0 1032244
03:00−16ююз8167794 0.0 1029350
06:00−13ююз9177897 0.0 1025487
09:00−10ююз122187100 0.1 1022699
12:00−8ююз122191100 0.6 1019810
15:00−4юз132093100 1.1 1018907
18:00−3юз121993100 2.6 1017877
21:00−3юз111894100 1.1 1017787
1 марта, пн
пн100:00−3юз121894100 2.8 1016761
03:00−3юз121993100 1.4 1016802
06:00−4юз111793100 2.3 1015745
09:00−3юз101694100 0.8 1016720
12:00−2юз101594100 1.8 1015775
15:00−2юз111693100 0.8 1015811
18:00−2юз91594100 1.2 1015712
21:00−3юз91492100 0.1 1017723